IQ8VX-3 Weather Reports


time (UTC)temp
C
wind
direction
speed
KPH
gust
KPH
rain 1hr
cm
rain 24hr
cm
rain mn
cm
humidity
%
barometer
mb
20260507121649 26 0.0 0.0 0.00 0.00 0.00 38 1724.0
20260507115649 26 0.0 0.0 0.00 0.00 0.00 36 1722.8
20260507113649 27 0.0 0.0 0.00 0.00 0.00 37 1725.6
20260507111648 25 0.0 0.0 0.00 0.00 0.00 44 1719.5
20260507105648 23 0.0 0.0 0.00 0.00 0.00 53 1716.9
20260507103648 23 0.0 0.0 0.00 0.00 0.00 54 1714.9
20260507101648 23 0.0 0.0 0.00 0.00 0.00 55 1714.6
20260507095647 22 0.0 0.0 0.00 0.00 0.00 57 1712.3
20260507093647 22 0.0 0.0 0.00 0.00 0.00 62 1711.7
20260507091647 22 0.0 0.0 0.00 0.00 0.00 62 1712.0
20260507085646 21 0.0 0.0 0.00 0.00 0.00 62 1711.3
20260507083646 21 0.0 0.0 0.00 0.00 0.00 64 1710.0
20260507081646 21 0.0 0.0 0.00 0.00 0.00 69 1710.1
20260507075645 20 0.0 0.0 0.00 0.00 0.00 72 1708.3
20260507073645 20 0.0 0.0 0.00 0.00 0.00 72 1708.5
20260507071645 20 0.0 0.0 0.00 0.00 0.00 75 1706.5
20260507065644 18 0.0 0.0 0.00 0.00 0.00 81 1704.1
20260507063644 17 0.0 0.0 0.00 0.00 0.00 84 1700.7
20260507061644 17 0.0 0.0 0.00 0.00 0.00 86 1699.2
20260507055643 17 0.0 0.0 0.00 0.00 0.00 86 1699.1
20260507053643 17 0.0 0.0 0.00 0.00 0.00 86 1699.3
20260507051643 16 0.0 0.0 0.00 0.00 0.00 89 1697.6
20260507045642 16 0.0 0.0 0.00 0.00 0.00 92 1545.7
20260507043642 16 0.0 0.0 0.00 0.00 0.00 92 1392.6
20260507041642 16 0.0 0.0 0.00 0.00 0.00 93 1312.8
20260507035642 15 0.0 0.0 0.00 0.00 0.00 93 1350.6
20260507033641 15 0.0 0.0 0.00 0.00 0.00 93 1424.7
20260507031641 16 0.0 0.0 0.00 0.00 0.00 93 1313.7
20260507025641 16 0.0 0.0 0.00 0.00 0.00 94 1216.6
20260507023640 16 0.0 0.0 0.00 0.00 0.00 93 1339.8
20260507021640 16 0.0 0.0 0.00 0.00 0.00 92 1444.2
20260507015640 16 0.0 0.0 0.00 0.00 0.00 94 1027.5
20260507013639 16 0.0 0.0 0.00 0.00 0.00 98 677.1
20260507011639 16 0.0 0.0 0.00 0.00 0.00 99 605.9
20260507005639 16 0.0 0.0 0.00 0.00 0.00 99 616.0
20260507003638 16 0.0 0.0 0.00 0.00 0.00 99 684.2
20260507001638 16 0.0 0.0 0.00 0.00 0.00 98 846.8
20260506235638 16 0.0 0.0 0.00 0.00 0.00 97 1078.1
20260506233637 16 0.0 0.0 0.00 0.00 0.00 96 1299.8
20260506231637 16 0.0 0.0 0.00 0.00 0.00 96 1350.1
20260506225637 16 0.0 0.0 0.00 0.00 0.00 96 1446.5
20260506223636 16 0.0 0.0 0.00 0.00 0.00 94 1697.8
20260506221636 16 0.0 0.0 0.00 0.00 0.00 92 1697.8
20260506215636 16 0.0 0.0 0.00 0.00 0.00 88 1697.9
20260506213636 16 0.0 0.0 0.00 0.00 0.00 87 1697.6
20260506211635 16 0.0 0.0 0.00 0.00 0.00 87 1697.6
20260506205635 16 0.0 0.0 0.00 0.00 0.00 88 1697.3
20260506203635 16 0.0 0.0 0.00 0.00 0.00 88 1696.8
20260506201634 16 0.0 0.0 0.00 0.00 0.00 88 1697.2
20260506195634 16 0.0 0.0 0.00 0.00 0.00 89 1697.5
20260506193634 16 0.0 0.0 0.00 0.00 0.00 90 1697.8
20260506191634 16 0.0 0.0 0.00 0.00 0.00 91 1698.0
20260506185633 16 0.0 0.0 0.00 0.00 0.00 92 1698.1
20260506183633 16 0.0 0.0 0.00 0.00 0.00 93 1698.5
20260506181632 17 0.0 0.0 0.00 0.00 0.00 92 1698.8
20260506175632 17 0.0 0.0 0.00 0.00 0.00 91 1699.4
20260506173632 17 0.0 0.0 0.00 0.00 0.00 90 1700.0
20260506171631 17 0.0 0.0 0.00 0.00 0.00 90 1700.4
20260506165631 17 0.0 0.0 0.00 0.00 0.00 90 1701.0
20260506163631 18 0.0 0.0 0.00 0.00 0.00 88 1701.7
20260506161631 18 0.0 0.0 0.00 0.00 0.00 87 1703.4
20260506155630 18 0.0 0.0 0.00 0.00 0.00 88 1703.1
20260506153630 18 0.0 0.0 0.00 0.00 0.00 87 1703.3
20260506151630 19 0.0 0.0 0.00 0.00 0.00 84 1705.8
20260506145629 20 0.0 0.0 0.00 0.00 0.00 83 1706.8
20260506143629 20 0.0 0.0 0.00 0.00 0.00 81 1707.5
20260506141629 21 0.0 0.0 0.00 0.00 0.00 77 1710.3
20260506135628 21 0.0 0.0 0.00 0.00 0.00 76 1709.4
20260506133628 21 0.0 0.0 0.00 0.00 0.00 72 1709.6
20260506131628 21 0.0 0.0 0.00 0.00 0.00 74 1709.8
20260506125627 21 0.0 0.0 0.00 0.00 0.00 73 1709.0
20260506123627 21 0.0 0.0 0.00 0.00 0.00 69 1710.3